Flag for Germany Weather past 2 weeks in Waren (Müritz), Mecklenburg-Western Pomerania, Germany

Now
54 °F

Light rain. Passing clouds.


Feels Like: 49 °F
Forecast: 50 / 64 °F
Wind: 17 mph from Southwest

Location: Laage

Current Time: Jul 30, 2015 at 3:06:26 AM

Latest Report: Jul 30, 2015 at 2:20 AM


Visibility: N/A

Pressure: 29.56 "Hg

Humidity: 100%

Dew point: 54 °F

Location of Waren (Müritz)Location

Historic Weather in Waren (Müritz) — Graph

°F

Waren (Müritz) temperature yesterday

Maximum temperature yesterday: 64 °F (at 1:20 PM)
Minimum temperature yesterday: 54 °F (at 4:20 AM)
Average temperature yesterday: 58 °F

Past Weeks' High & Low Weather Summary

 TemperatureHumidityPressure
High82 °F (Jul 17, 6:20 PM)100% (Jul 18, 6:20 AM)30.09 "Hg (Jul 18, 6:20 AM)
Low48 °F (Jul 24, 4:20 AM)36% (Jul 24, 4:20 PM)29.45 "Hg (Jul 25, 3:20 PM)
Average62 °F75%29.81 "Hg
* Reported Jul 15 1:20 AM — Jul 30 1:20 AM, Waren (Müritz), Weather by CustomWeather, © 2015

Note: Actual official high and low records may vary slightly from our data, if they occured in-between our weather recording intervals... More about our weather records

Advertising

Waren (Müritz) weather history for previous 24 hours

 ConditionsComfort  
Time TempWeatherWind HumidityBarometerVisibility
1:20 AM
Thu, Jul 30
54 °FRain. Partly cloudy.13 mph94%29.56 "Hg4 mi
12:20 AM54 °FLight rain. Passing clouds.14 mph94%29.56 "Hg5 mi
11:20 PM
Wed, Jul 29
55 °FLight rain. Passing clouds.12 mph82%29.56 "HgN/A
10:20 PM55 °FLight rain. Passing clouds.12 mph77%29.59 "HgN/A
9:20 PM55 °FPassing clouds.10 mph77%29.59 "HgN/A
8:20 PM59 °FScattered clouds.14 mph68%29.59 "HgN/A
7:58 PM57 °FSprinkles. Partly sunny.16 mph77%29.59 "HgN/A
7:20 PM61 °FPartly sunny.13 mph63%29.59 "HgN/A
6:20 PM61 °FPartly sunny.12 mph55%29.59 "HgN/A
5:20 PM59 °FScattered showers. Scattered clouds.15 mph68%29.59 "HgN/A
4:20 PM63 °FScattered showers. Passing clouds.16 mph56%29.59 "HgN/A
3:20 PM61 °FThundershowers. Partly sunny.21 mph59%29.59 "HgN/A
3:04 PM63 °FThundershowers. Partly sunny.12 mph68%29.59 "HgN/A
2:20 PM63 °FScattered showers. Partly sunny.15 mph59%29.59 "HgN/A
1:58 PM63 °FThunderstorms. Partly sunny.14 mph59%29.59 "HgN/A
1:20 PM64 °FBroken clouds.14 mph60%29.59 "HgN/A
12:20 PM61 °FPartly sunny.15 mph68%29.59 "HgN/A
12:04 PM61 °FScattered showers. Broken clouds.14 mph68%29.59 "HgN/A
11:20 AM61 °FBroken clouds.12 mph72%29.59 "HgN/A
10:20 AM59 °FPartly sunny.10 mph77%29.62 "HgN/A
9:20 AM57 °FPartly sunny.14 mph77%29.59 "HgN/A
8:20 AM57 °FPartly sunny.12 mph82%29.59 "HgN/A
7:20 AM57 °FBroken clouds.8 mph82%29.59 "HgN/A
6:20 AM55 °FPartly sunny.7 mph88%29.59 "HgN/A
5:20 AM55 °FPassing clouds.7 mph88%29.59 "HgN/A
4:20 AM54 °FPassing clouds.9 mph94%29.59 "HgN/A
3:20 AM55 °FPassing clouds.9 mph88%29.59 "HgN/A
Weather by CustomWeather, © 2015

See weather overviewHow to use our weather pages